Regional Weather Roundup
Issued by NWS Upton, NY

Current Version | Previous Version | Graphics & Text | Print | Product List | Glossary Off
Versions: 1 2 3 4 5 6 7 8 9 10 11 12 13 14 15 16 17 18 19 20 21 22 23 24 25 26 27 28 29 30 31 32 33 34 35 36 37 38 39 40 41 42 43 44 45 46 47 48 49

000
ASUS41 KOKX 311804
RWROKX

REGIONAL WEATHER ROUNDUP
NATIONAL WEATHER SERVICE NEW YORK NY
200 PM EDT MON AUG 31 2015

NOTE: "FAIR" INDICATES FEW OR NO CLOUDS BELOW 12,000 FEET WITH NO
SIGNIFICANT WEATHER AND/OR OBSTRUCTIONS TO VISIBILITY.

NYZ071-072-176-178-NJZ106-104-311900-
NEW YORK CITY METRO AREA


CITY           SKY/WX    TMP DP  RH WIND       PRES   REMARKS
CENTRAL PARK   PTSUNNY   88  66  48 VRB6      30.02F HX  90
LAGUARDIA APRT PTSUNNY   89  63  41 W10       29.99F HX  90
KENNEDY INTL   PTSUNNY   88  67  49 SW12      30.01F HX  91
NEWARK/LIBERTY CLOUDY    92  65  40 W10       30.00F HX  94
BRNX BOT. GARD   N/A     86  66  51 S7        30.00F
TETERBORO      PTSUNNY   89  65  44 SW9       29.98F HX  91
$$

NYZ177-179-078>081-311900-
LONG ISLAND NEW YORK

CITY           SKY/WX    TMP DP  RH WIND       PRES   REMARKS
FARMINGDALE    PTSUNNY   89  64  43 W10       30.00F HX  90
ISLIP          CLOUDY    89  65  44 W12       29.97F HX  91
SHIRLEY        PTSUNNY   89  64  43 W14       29.99F HX  90
WESTHAMPTON    PTSUNNY   88  69  53 SW12      30.00F HX  92
MONTAUK POINT    N/A     85  69  58 SW7       29.98F
$$

NYZ052-065-067-311900-
HUDSON VALLEY

CITY           SKY/WX    TMP DP  RH WIND       PRES   REMARKS
WHITE PLAINS   PTSUNNY   87  66  49 VRB5      30.00F
NEWBURGH       PTSUNNY   84  70  61 W9        30.02F
MONTGOMERY     PTSUNNY   85  69  58 SW9       30.00F
POUGHKEEPSIE   PTSUNNY   87  69  54 SW9       29.98F HX  91
ALBANY         PTSUNNY   84  64  50 W13       29.97F
$$

NJZ001-105-106-008-010-013-015-019>022-104-311900-
NEW JERSEY

CITY           SKY/WX    TMP DP  RH WIND       PRES   REMARKS
NEWARK/LIBERTY CLOUDY    92  65  40 W10       30.00F HX  94
TETERBORO      PTSUNNY   89  65  44 SW9       29.98F HX  91
CALDWELL       PTSUNNY   88  66  48 VRB7      30.00F HX  90
MORRISTOWN     CLOUDY    90  68  48 W12G17    30.01F HX  93
SOMERVILLE     PTSUNNY   89  66  46 VRB7      30.00F HX  91
SUSSEX         PTSUNNY   87  66  49 W7        30.02F
ANDOVER          N/A     82  69  64 CALM      30.03F
TRENTON        CLOUDY    86  69  56 SW8       30.03F HX  90
MILLVILLE      CLOUDY    86  68  54 VRB7      30.05F
ATLANTIC CITY  CLOUDY    88  67  49 SW12G18   30.04F HX  91
WRIGHTSTOWN    PTSUNNY   87  69  53 W7        30.00F HX  91
TOMS RIVER     CLOUDY    91  64  40 SW8       30.02F HX  93
BELMAR         CLOUDY    88  66  48 W10       30.03F HX  90
$$

PAZ047>061-062-071-311900-
EASTERN PENNSYLVANIA

CITY           SKY/WX    TMP DP  RH WIND       PRES   REMARKS
PHILADELPHIA   CLOUDY    89  65  44 W14       30.03F HX  91
ALLENTOWN      MOSUNNY   89  66  46 W10G17    30.03F HX  91
SCRANTON       LGT RAIN  80  70  71 N8        30.05F
$$

CTZ002-004>006-009-010-012-RIZ004-006-007-MAZ004-011-015-311900-
SOUTHERN NEW ENGLAND
 IN CT

CITY           SKY/WX    TMP DP  RH WIND       PRES   REMARKS
BRADLEY INTL   PTSUNNY   87  66  49 W12       29.95F
HARTFORD       PTSUNNY   86  66  51 W9        29.96F
DANBURY        PTSUNNY   86  64  47 W15       30.01F
WTRBRY/OXFORD  SUNNY     82  64  54 NW7       30.03F
BRIDGEPORT     PTSUNNY   86  70  58 SW15      29.98F HX  90
MERIDEN        PTSUNNY   88  64  44 NW10      29.97F
NEW HAVEN      PTSUNNY   81  69  67 SW9       29.97F
CHESTER        NOT AVBL
GROTON         MOSUNNY   81  71  71 SW13      29.95F
WILLIMANTIC    PTSUNNY   84  66  54 W7        29.97F

 IN RI

CITY           SKY/WX    TMP DP  RH WIND       PRES   REMARKS
PROVIDENCE     PTSUNNY   86  64  47 W15       29.95F
BLOCK ISLAND   MOSUNNY   81  72  74 W13       29.97F
WESTERLY       MOSUNNY   82  68  62 SW12      29.97F

 IN MA

CITY           SKY/WX    TMP DP  RH WIND       PRES   REMARKS
BOSTON         MOSUNNY   88  61  40 W20       29.90F
WORCESTER      MOSUNNY   82  62  50 W13       29.98F
WESTFIELD      MOSUNNY   89  65  44 W10G17    29.95F HX  91
PROVINCETOWN     N/A     84  66  54 SW9       29.92F
NANTUCKET      MOSUNNY   80  71  74 W17       29.95F
$$

ANZ330-335-338-340-345-350-353-355-311900-
COASTAL MARINE OBSERVATIONS


STATION/POSITION TIME  SKY/WX   TEMP    WIND        PRES    VSBY  WAVE
                                AIR SEA DIR/SP/G                  HT/PER
                 (UTC)          (F)     (DEG/KT/KT) (MB)    (MI)  (FT/S)
NY HARB ENTRANCE 1650            78 76  230/  6/  6 1016.8          3/10
4S FIRE IS       NOT AVBL
20S FIRE ISLAND  1650            75 74  240/ 12/ 12 1016.7          3/10
GREAT SOUTH BAY  1730            79 78  260/  6/ 14   N/A
23SW MTP         1750            74 72  260/ 14/ 16 1015.1          4/ 6
HUDSON CANYON    NOT AVBL
KINGS POINT      1700            81 74  290/  5/  5 1015.8
EXECUTION ROCKS  1700            79     180/  8/ 10   N/A
CENTRAL LI SOUND NOT AVBL
EASTERN LI SOUND 1700            75 71  240/ 12/ 14   N/A
ROBBINS REEF     1700            83     290/  8/ 11 1015.6
$$


>>>>>>>>>>>>>>>>>>>>>>>>>>>> KEY <<<<<<<<<<<<<<<<<<<<<<<<<<<
>                                                          <
>     SKY/WX - SKY CONDITION/PRESENT WEATHER               <
>     TMP    - TEMPERATURE IN FAHRENHEIT                   <
>     DP     - DEWPOINT IN FAHRENHEIT                      <
>     RH     - RELATIVE HUMIDITY IN PERCENT                <
>     WIND   - DIRECTION AND SPEED IN MPH                  <
>     PRES   - MEAN SEA LEVEL PRESSURE IN INCHES OF HG     <
>     WCI    - WIND CHILL INDEX                            <
>     VSB    - VISIBILITY IN MILES                         <
>     HX     - HEAT INDEX                                  <
>     TC     - TEMPERATURE IN CELSIUS                      <
>     VRB    - VARIABLE WIND DIRECTION                     <
>                                                          <
>>>>>>>>>>>>>>>>>>>>>>>>>>>> KEY <<<<<<<<<<<<<<<<<<<<<<<<<<<




USA.gov is the U.S. government's official web portal to all federal, state and local government web resources and services.